Regional Weather Roundup
Issued by NWS

Home | Current Version | Previous Version | Text Only | Print | Product List | Glossary On
Versions: 1 2 3 4 5 6 7 8 9 10 11 12 13 14 15 16 17 18 19 20 21 22 23 24 25 26 27 28 29 30 31 32 33 34 35 36 37 38 39 40 41 42 43 44 45 46 47 48 49 50
000
ASUS44 KOUN 260210
RWROK

WEATHER ROUNDUP FOR OKLAHOMA
NATIONAL WEATHER SERVICE NORMAN OK
900 PM CDT FRI JUL 25 2014

NOTE: "FAIR" INDICATES FEW OR NO CLOUDS BELOW 12,000 FEET WITH NO
      SIGNIFICANT WEATHER AND/OR OBSTRUCTIONS TO VISIBILITY.

OKZ001>007-009>012-014-015-017-260300-
NORTHWEST OKLAHOMA AND THE PANHANDLE

CITY           SKY/WX    TMP DP  RH WIND       PRES   REMARKS
GAGE           CLEAR     91  55  29 S15       29.85R
ENID/WOODRING  PTCLDY    88  61  40 S12       29.82R
$$

OKZ016-021>023-033>039-044-045-260300-
SOUTHWEST OKLAHOMA

CITY           SKY/WX    TMP DP  RH WIND       PRES   REMARKS
LAWTON/REGL    CLEAR     93  62  35 S14       29.88R HX  93
LAWTON/FT SILL CLEAR     92  60  33 S14       29.88R HX  91
FREDERICK      CLEAR     92  57  30 S12       29.85R HX  90
CLINTON        CLEAR     92  53  26 S14       29.90R
HOBART         CLEAR     91  56  30 S17       29.87F
ALTUS AFB      CLEAR     84  61  45 S8        29.85F
$$

OKZ018>020-024>031-260300-
CENTRAL OKLAHOMA

CITY           SKY/WX    TMP DP  RH WIND       PRES   REMARKS
OKLAHOMA CITY  PTCLDY    86  60  41 S8        29.87R
OKC/WILEY POST CLEAR     91  60  35 S16       29.87R HX  90
OKC/TINKER AFB CLEAR     85  68  56 S14       29.88S
STILLWATER     CLEAR     87  72  60 SE10      29.85R HX  93
GUTHRIE        CLEAR     88  69  53 S12       29.85R HX  92
$$

OKZ008-013-054>072-260300-
NORTHEAST OKLAHOMA

CITY           SKY/WX    TMP DP  RH WIND       PRES   REMARKS
TULSA          CLEAR     88  72  58 S12       29.86R HX  94
TULSA/JONES    CLEAR     88  73  61 S7        29.87R HX  95
PONCA CITY     CLEAR     91  70  49 S14G22    29.82R HX  96
BARTLESVILLE   CLEAR     85  74  69 S8        29.86S HX  92
MUSKOGEE       CLEAR     82  74  76 S8        29.91S
$$

OKZ032-040>043-046>053-073>077-260300-
SOUTH CENTRAL/SOUTHEAST OKLAHOMA

CITY           SKY/WX    TMP DP  RH WIND       PRES   REMARKS
ARDMORE/DWNTWN CLEAR     86  66  51 CALM      29.91R
MCALESTER      CLEAR     84  73  69 SE7       29.93S HX  90
$$



USA.gov is the U.S. government's official web portal to all federal, state and local government web resources and services.